User: anonymous   Login
Location: Unspecified
(0.0000°N, 0.0000°E)
Time: 19:23:18
(UTC+00:00)
Language:

Cubesat XI-IV - Orbit

View from above orbital plane
View from above orbital plane
View from above satellite
View from above satellite

Ground track
Ground track

The orbit data is extracted from the following two-line orbital elements,

1 27848U 03031J   18139.55561646  .00000031  00000-0  34107-4 0  9999
2 27848  98.6959 149.0224 0010920 103.4574 256.7821 14.21716727771997
Epoch (UTC): 19 May 2018 13:20:05
Eccentricity: 0.0010920
inclination: 98.6959°
perigee height: 811 km
apogee height: 827 km
right ascension of ascending node: 149.0224°
argument of perigee: 103.4574°
revolutions per day: 14.21716727
mean anomaly at epoch: 256.7821°
orbit number at epoch: 77199

The dashed part of the orbit path shows where the satellite is in the earth's shadow,  

DLR